CZ-2D R/B (53764 NORAD) Tracking and Keplerian Element Data

This shows tracking and keplerian element data for the satellite.

Feedback or suggestion? Click here.




ElementValue
Catalog53764
NameCZ-2D R/B
Epoch Orbit316
Epoch Day270.13668473
Epoch Year2022
RAAN253.5811
Inclination34.9974
Eccentricity0.000808
Argument of Perigee95.5539
Mean Anonmoly315.9081
Mean Motion15.24397056
Decay Rate0.00033324
L11 53764U 22109E 22270.13668473 .00033324 00000+0 13213-2 0 9996
L22 53764 34.9974 253.5811 0008080 95.5539 315.9081 15.24397056 3169



Live tracking and technical data element details for CZ-2D R/B (NORAD 53764). CZ-2D R/B can be tracked NOW for your location showing map with azimuth and elevation plus other details from your city location.







IsCatalogInMostPopularTable: catalog: 53764, numindb: -1

Insert: records affected: 1


GetName: 53764 CZ-2D R/B

Hit Count: inserted at: Thu, 08 Dec 2022 08:35:47 GMT